THY427 LGIO-LEPA

Flight info

Callsign THY427
Flight time N/A
Altitude 36000
Route VJOSA TIGRA SIRGI PEVIR QUENN SUPUX MORSS
Aircraft A320/M-SDE3FGHIRWY/LB1

Departure

Time N/A
Airport Ioannina King Pyrrhus National Airport (LGIO)

Arrival

Time 2026-04-30 20:59
Airport Palma de Mallorca Airport (LEPA)
Time Latitude Longitude Altitude Speed Heading
2026-04-30 19:55 40.19840 10.43931 32085 ft 283 kts 283°
2026-04-30 19:56 40.20078 10.41338 32215 ft 292 kts 275°
2026-04-30 19:56 40.20103 10.38654 32343 ft 300 kts 274°
2026-04-30 19:56 40.20125 10.35894 32475 ft 307 kts 275°
2026-04-30 19:56 40.20225 10.33080 32602 ft 313 kts 277°
2026-04-30 19:57 40.20412 10.30216 32733 ft 319 kts 278°
2026-04-30 19:57 40.20665 10.27316 32867 ft 325 kts 279°
2026-04-30 19:57 40.20958 10.24407 32998 ft 330 kts 279°
2026-04-30 19:57 40.21282 10.21403 33126 ft 336 kts 280°
2026-04-30 19:58 40.21965 10.15142 32658 ft 367 kts 279°
2026-04-30 19:58 40.22325 10.11772 32462 ft 381 kts 279°
2026-04-30 19:58 40.22694 10.08278 32267 ft 394 kts 279°
2026-04-30 19:59 40.23074 10.04665 32135 ft 406 kts 279°
2026-04-30 19:59 40.23457 10.00985 32166 ft 413 kts 279°
2026-04-30 19:59 40.24225 9.93467 32522 ft 420 kts 279°
2026-04-30 20:00 40.24607 9.89707 33204 ft 413 kts 279°
2026-04-30 20:00 40.24981 9.86021 33844 ft 407 kts 279°
2026-04-30 20:00 40.25342 9.82430 34003 ft 390 kts 278°
2026-04-30 20:00 40.25684 9.78975 33970 ft 378 kts 278°
2026-04-30 20:01 40.26389 9.72015 32403 ft 395 kts 279°
2026-04-30 20:01 40.26759 9.68424 32214 ft 400 kts 279°
2026-04-30 20:01 40.27130 9.64808 32157 ft 402 kts 279°
2026-04-30 20:02 40.28219 9.53935 32171 ft 404 kts 278°
2026-04-30 20:03 40.29292 9.42999 32167 ft 405 kts 278°
2026-04-30 20:03 40.30016 9.35668 32161 ft 406 kts 278°
2026-04-30 20:04 40.30735 9.28397 32161 ft 406 kts 278°
2026-04-30 20:05 40.31788 9.17391 32157 ft 406 kts 278°
2026-04-30 20:05 40.32845 9.06382 32145 ft 407 kts 278°
2026-04-30 20:06 40.33542 8.99077 32150 ft 408 kts 278°
2026-04-30 20:06 40.34239 8.91696 32145 ft 408 kts 278°
2026-04-30 20:07 40.34922 8.84335 32138 ft 407 kts 278°
2026-04-30 20:08 40.35941 8.73325 32134 ft 407 kts 278°
2026-04-30 20:08 40.36616 8.65944 32133 ft 410 kts 278°
2026-04-30 20:09 40.37293 8.58516 32122 ft 410 kts 278°
2026-04-30 20:09 40.38300 8.47383 32116 ft 411 kts 278°
2026-04-30 20:10 40.39287 8.36347 32116 ft 411 kts 278°
2026-04-30 20:11 40.40279 8.25177 32096 ft 412 kts 277°
2026-04-30 20:11 40.40933 8.17697 32098 ft 413 kts 277°
2026-04-30 20:12 40.41905 8.06518 32105 ft 414 kts 277°
2026-04-30 20:13 40.42268 7.98985 32108 ft 416 kts 268°
2026-04-30 20:13 40.41384 7.91473 32103 ft 418 kts 263°
2026-04-30 20:14 40.40428 7.83936 32101 ft 419 kts 263°
2026-04-30 20:14 40.39485 7.76459 32105 ft 419 kts 263°
2026-04-30 20:15 40.38528 7.68914 32107 ft 419 kts 263°
2026-04-30 20:15 40.37564 7.61381 32111 ft 420 kts 263°
2026-04-30 20:16 40.36588 7.53835 32105 ft 420 kts 262°
2026-04-30 20:16 40.35603 7.46284 32106 ft 420 kts 262°
2026-04-30 20:17 40.34626 7.38780 32105 ft 421 kts 262°
2026-04-30 20:17 40.33638 7.31235 32108 ft 421 kts 262°
2026-04-30 20:18 40.32638 7.23682 32108 ft 421 kts 262°
2026-04-30 20:18 40.31638 7.16139 32114 ft 421 kts 262°
2026-04-30 20:19 40.30643 7.08637 32111 ft 421 kts 262°
2026-04-30 20:19 40.29636 7.01102 32111 ft 421 kts 262°
2026-04-30 20:20 40.28624 6.93549 32112 ft 421 kts 262°
2026-04-30 20:20 40.27609 6.86007 32113 ft 421 kts 262°
2026-04-30 20:21 40.26591 6.78508 32081 ft 422 kts 261°
2026-04-30 20:21 40.25559 6.70960 32085 ft 423 kts 261°
2026-04-30 20:22 40.24519 6.63381 32084 ft 423 kts 261°
2026-04-30 20:22 40.23476 6.55809 32095 ft 424 kts 261°
2026-04-30 20:23 40.22428 6.48275 32100 ft 424 kts 261°
2026-04-30 20:23 40.21377 6.40701 32099 ft 424 kts 261°
2026-04-30 20:24 40.20316 6.33106 32093 ft 425 kts 261°
2026-04-30 20:24 40.19243 6.25512 32096 ft 425 kts 261°
2026-04-30 20:25 40.17638 6.14180 32099 ft 425 kts 261°
2026-04-30 20:26 40.16012 6.02782 32095 ft 426 kts 261°
2026-04-30 20:26 40.14366 5.91356 32109 ft 427 kts 261°
2026-04-30 20:27 40.12176 5.76187 32105 ft 427 kts 260°
2026-04-30 20:28 40.09936 5.60953 32094 ft 427 kts 260°
2026-04-30 20:30 40.07134 5.41930 32095 ft 428 kts 260°
2026-04-30 20:30 40.05425 5.30470 31800 ft 430 kts 259°
2026-04-30 20:31 40.03704 5.19017 30541 ft 432 kts 259°
2026-04-30 20:32 40.01938 5.07407 28532 ft 438 kts 259°
2026-04-30 20:32 40.00744 4.99573 27575 ft 442 kts 259°
2026-04-30 20:33 40.00141 4.95637 27316 ft 444 kts 259°
2026-04-30 20:33 39.98934 4.87781 26805 ft 447 kts 259°
2026-04-30 20:33 39.98321 4.83799 26563 ft 448 kts 259°
2026-04-30 20:34 39.97088 4.75817 25823 ft 448 kts 259°
2026-04-30 20:34 39.95848 4.67802 23575 ft 453 kts 259°
2026-04-30 20:35 39.95176 4.63786 22501 ft 452 kts 257°
2026-04-30 20:35 39.94415 4.59874 22196 ft 444 kts 256°
2026-04-30 20:35 39.92768 4.52193 21616 ft 442 kts 255°
2026-04-30 20:36 39.91930 4.48348 21228 ft 440 kts 255°
2026-04-30 20:36 39.91105 4.44517 20832 ft 438 kts 255°
2026-04-30 20:36 39.89511 4.36902 20061 ft 434 kts 256°
2026-04-30 20:37 39.88736 4.33119 19680 ft 431 kts 256°
2026-04-30 20:37 39.87967 4.29372 19296 ft 429 kts 256°
2026-04-30 20:37 39.87193 4.25625 18909 ft 427 kts 256°
2026-04-30 20:37 39.86311 4.21998 18540 ft 426 kts 249°
2026-04-30 20:38 39.84996 4.18551 18121 ft 425 kts 241°
2026-04-30 20:38 39.83502 4.15245 17748 ft 423 kts 241°
2026-04-30 20:38 39.82017 4.11955 17373 ft 421 kts 241°
2026-04-30 20:39 39.79077 4.05424 16595 ft 416 kts 241°
2026-04-30 20:39 39.77627 4.02200 16040 ft 413 kts 240°
2026-04-30 20:39 39.76184 3.98992 15510 ft 409 kts 240°
2026-04-30 20:40 39.73330 3.92664 14388 ft 401 kts 240°
2026-04-30 20:40 39.71946 3.89605 13701 ft 396 kts 240°
2026-04-30 20:40 39.70556 3.86538 12981 ft 392 kts 240°
2026-04-30 20:41 39.67829 3.80506 11531 ft 383 kts 240°
2026-04-30 20:41 39.66492 3.77555 10800 ft 379 kts 240°
2026-04-30 20:41 39.65156 3.74620 10091 ft 376 kts 240°
2026-04-30 20:41 39.63862 3.71784 9776 ft 350 kts 240°
2026-04-30 20:42 39.62678 3.69190 9567 ft 320 kts 240°
2026-04-30 20:42 39.61590 3.66810 9435 ft 294 kts 240°
2026-04-30 20:42 39.59622 3.62493 8770 ft 275 kts 240°
2026-04-30 20:43 39.58651 3.60362 8439 ft 274 kts 240°
2026-04-30 20:43 39.57686 3.58245 8123 ft 273 kts 240°
2026-04-30 20:43 39.56722 3.56134 7994 ft 274 kts 240°
2026-04-30 20:44 39.54774 3.51875 7742 ft 275 kts 240°
2026-04-30 20:44 39.53798 3.49745 7631 ft 275 kts 240°
2026-04-30 20:44 39.51863 3.45522 7383 ft 273 kts 240°
2026-04-30 20:45 39.49932 3.41281 7148 ft 274 kts 243°
2026-04-30 20:45 39.49386 3.38951 7023 ft 272 kts 264°
2026-04-30 20:45 39.49236 3.36505 6905 ft 273 kts 267°
2026-04-30 20:46 39.48906 3.29182 6157 ft 270 kts 267°
2026-04-30 20:46 39.48788 3.26769 6001 ft 269 kts 267°
2026-04-30 20:47 39.48564 3.21888 6007 ft 273 kts 267°
2026-04-30 20:47 39.48455 3.19470 5942 ft 272 kts 267°
2026-04-30 20:48 39.48242 3.14588 5271 ft 271 kts 267°
2026-04-30 20:48 39.48133 3.12145 4932 ft 272 kts 267°
2026-04-30 20:48 39.48028 3.09704 4577 ft 272 kts 267°
2026-04-30 20:48 39.47924 3.07257 4232 ft 273 kts 268°
2026-04-30 20:49 39.47820 3.04810 4010 ft 271 kts 268°
2026-04-30 20:49 39.47702 3.02370 4006 ft 272 kts 267°
2026-04-30 20:49 39.47576 2.99956 4007 ft 273 kts 267°
2026-04-30 20:50 39.47325 2.95068 4005 ft 273 kts 267°
2026-04-30 20:50 39.47197 2.92613 4007 ft 273 kts 267°
2026-04-30 20:50 39.47071 2.90161 4007 ft 273 kts 267°
2026-04-30 20:50 39.46845 2.87713 3999 ft 275 kts 263°
2026-04-30 20:51 39.46557 2.85273 3998 ft 274 kts 262°
2026-04-30 20:51 39.45970 2.80419 4010 ft 273 kts 262°
2026-04-30 20:51 39.45683 2.78027 4010 ft 273 kts 262°
2026-04-30 20:52 39.45394 2.75604 3983 ft 272 kts 262°
2026-04-30 20:52 39.45108 2.73191 3676 ft 271 kts 262°
2026-04-30 20:52 39.44548 2.68371 3054 ft 269 kts 262°
2026-04-30 20:53 39.44271 2.65975 3000 ft 270 kts 262°
2026-04-30 20:53 39.43986 2.63583 3006 ft 271 kts 262°
2026-04-30 20:53 39.43695 2.61170 3006 ft 271 kts 262°
2026-04-30 20:54 39.43574 2.56525 2997 ft 245 kts 294°
2026-04-30 20:54 39.44492 2.54857 2901 ft 222 kts 326°
2026-04-30 20:54 39.45848 2.54340 2862 ft 197 kts 12°
2026-04-30 20:55 39.47611 2.56298 2626 ft 154 kts 56°
2026-04-30 20:55 39.48191 2.57412 2430 ft 147 kts 58°
2026-04-30 20:55 39.48735 2.58513 2253 ft 144 kts 59°
2026-04-30 20:56 39.49776 2.60671 1883 ft 140 kts 60°
2026-04-30 20:56 39.50275 2.61716 1714 ft 134 kts 60°
2026-04-30 20:56 39.51241 2.63747 1350 ft 132 kts 60°
2026-04-30 20:57 39.51714 2.64744 1174 ft 131 kts 59°
2026-04-30 20:57 39.52191 2.65748 1002 ft 131 kts 60°
2026-04-30 20:57 39.52675 2.66770 829 ft 134 kts 59°
2026-04-30 20:58 39.53649 2.68824 476 ft 132 kts 58°
2026-04-30 20:58 39.54146 2.69849 279 ft 134 kts 58°
2026-04-30 20:58 39.54621 2.70861 88 ft 131 kts 59°
2026-04-30 20:58 39.55059 2.71795 30 ft 103 kts 58°
2026-04-30 20:59 39.55486 2.72729 30 ft 23 kts 81°
2026-04-30 20:59 39.55465 2.72866 30 ft 6 kts 128°
2026-04-30 21:00 39.55460 2.72876 30 ft 2 kts 128°
2026-04-30 21:00 39.55457 2.72881 30 ft 0 kts 126°
2026-04-30 21:01 39.55440 2.72911 30 ft 7 kts 125°
2026-04-30 21:02 39.55402 2.72963 30 ft 9 kts 147°
2026-04-30 21:02 39.55335 2.73004 30 ft 12 kts 151°
2026-04-30 21:02 39.55283 2.73088 30 ft 14 kts 84°
2026-04-30 21:02 39.55334 2.73210 30 ft 17 kts 58°
2026-04-30 21:03 39.55399 2.73351 30 ft 20 kts 58°
2026-04-30 21:03 39.55401 2.73472 30 ft 8 kts 152°
2026-04-30 21:03 39.55377 2.73481 30 ft 4 kts 155°
2026-04-30 21:03 39.55320 2.73526 30 ft 14 kts 148°
2026-04-30 21:04 39.55230 2.73597 30 ft 17 kts 149°
2026-04-30 21:04 39.55146 2.73521 30 ft 18 kts 239°
2026-04-30 21:04 39.55034 2.73373 30 ft 6 kts 159°
2026-04-30 21:05 39.54989 2.73392 30 ft 6 kts 164°
2026-04-30 21:05 39.54985 2.73394 30 ft 0 kts 163°